Location: Newark
(41.0000°N, 28.9500°W)
Time: 10:06:15
(UTC+00:00)

ISS - Visible Passes

Search period start: 28 January 2020 00:00
Search period end: 07 February 2020 00:00
Orbit: 416 x 423 km, 51.6° (Epoch: 28 January)

Date Brightness Start Highest point End Pass type
(mag) Time Alt. Az. Time Alt. Az. Time Alt. Az.
28 Jan -1.4 20:37:14 10° NW 20:39:04 14° N 20:39:35 13° N visible
29 Jan -1.4 19:49:12 10° NW 19:51:14 15° N 19:53:16 10° NNE visible
29 Jan -0.7 21:26:53 10° NNW 21:26:56 10° NNW 21:26:56 10° NNW visible
30 Jan -1.5 20:39:19 10° NNW 20:41:15 14° N 20:41:19 14° N visible
31 Jan -1.4 19:51:35 10° NNW 19:53:24 14° N 19:55:12 10° NNE visible
31 Jan -0.8 21:28:17 10° NW 21:28:42 12° NNW 21:28:42 12° NNW visible
01 Feb -1.9 20:40:49 10° NNW 20:43:08 19° NNE 20:43:08 19° NNE visible
02 Feb -1.7 19:53:18 10° NNW 19:55:30 16° NNE 19:57:38 10° NE visible
02 Feb -1.2 21:29:37 10° NW 21:30:36 17° NW 21:30:36 17° NW visible
03 Feb -2.8 20:42:07 10° NW 20:45:11 32° NNE 20:45:11 32° NNE visible
04 Feb -2.3 19:54:37 10° NW 19:57:27 24° NNE 19:59:52 12° ENE visible
04 Feb -1.7 21:31:08 10° WNW 21:32:51 27° WNW 21:32:51 27° WNW visible
05 Feb -3.9 20:43:28 10° NW 20:46:51 78° NE 20:47:40 48° ESE visible
06 Feb -3.4 19:55:52 10° NW 19:59:11 47° NNE 20:02:27 10° ESE visible
06 Feb -1.4 21:33:10 10° W 21:35:40 20° SW 21:35:40 20° SW visible
